This is the latest recevied weather packets stored in our database for station/object KC5DAQ-26. If no packets are shown the sender has not sent any weather packets the latest 10 day(s).
| Time | Temp. | Humidity | Pressure | Rain* | Wind** | Luminosity | Snow |
|---|---|---|---|---|---|---|---|
| 1787922769 | 24.44° C | 97% | 1019.9 hPa | 0 mm | - | 120 W/m² | - |
| 1787922710 | 24.44° C | 97% | 1019.9 hPa | 0 mm | - | 90 W/m² | - |
| 1787922650 | 24.44° C | 97% | 1019.9 hPa | 0 mm | - | 53 W/m² | - |
| 1787922589 | 24.44° C | 97% | 1019.8 hPa | 0 mm | - | 48 W/m² | - |
| 1787922531 | 24.44° C | 97% | 1019.8 hPa | 0 mm | - | 46 W/m² | - |
| 1787922469 | 24.44° C | 97% | 1019.7 hPa | 0 mm | - | 42 W/m² | - |
| 1787922410 | 24.44° C | 97% | 1019.6 hPa | 0 mm | - | 51 W/m² | - |
| 1787922350 | 24.44° C | 97% | 1019.6 hPa | 0 mm | - | 44 W/m² | - |
| 1787922289 | 24.44° C | 97% | 1019.7 hPa | 0 mm | - | 49 W/m² | - |
| 1787922230 | 24.44° C | 97% | 1019.6 hPa | 0 mm | - | 65 W/m² | - |
| 1787922170 | 24.44° C | 97% | 1019.6 hPa | 0 mm | - | 63 W/m² | - |
| 1787922110 | 24.44° C | 97% | 1019.6 hPa | 0 mm | - | 109 W/m² | - |
| 1787922049 | 23.89° C | 97% | 1019.4 hPa | 0 mm | - | 111 W/m² | - |
| 1787921989 | 23.89° C | 97% | 1019.6 hPa | 0 mm | - | 113 W/m² | - |
| 1787921930 | 23.89° C | 97% | 1019.6 hPa | 0 mm | - | 111 W/m² | - |
| 1787921870 | 23.89° C | 97% | 1019.6 hPa | 0 mm | - | 111 W/m² | - |
| 1787921809 | 23.89° C | 97% | 1019.6 hPa | 0 mm | - | 109 W/m² | - |
| 1787921749 | 23.89° C | 97% | 1019.6 hPa | 0 mm | - | 106 W/m² | - |
| 1787921690 | 23.89° C | 96% | 1019.6 hPa | 0 mm | - | 104 W/m² | - |
| 1787921629 | 23.89° C | 96% | 1019.6 hPa | 0 mm | - | 102 W/m² | - |
| 1787921570 | 23.89° C | 96% | 1019.6 hPa | 0 mm | - | 100 W/m² | - |
| 1787921511 | 23.89° C | 96% | 1019.5 hPa | 0 mm | - | 95 W/m² | - |
| 1787921450 | 23.89° C | 97% | 1019.5 hPa | 0 mm | - | 93 W/m² | - |
| 1787921390 | 23.89° C | 97% | 1019.6 hPa | 0 mm | - | 90 W/m² | - |
| 1787921329 | 23.89° C | 97% | 1019.6 hPa | 0 mm | - | 88 W/m² | - |
* Rain latest hour (hover to see other rain measurements)
** Current wind speed in m/s (hover to see current wind gust speed)